ECMWFFLT2_850_spd_000.txt.gz
Wind_Speed
5 4 3 5 8 12 17 19 17 16 14 12 13 17 19 18 16 16 16 17 16 17 17 16 15 14 12 11 13 22 25 24 22 17 15 14 13 12 12 13 14 15 16 16 15 14 12 11 9 8 7 7 8 9 10 10 10 11 11 10 10 10
5 6 6 6 7 7 14 20 20 19 14 9 12 17 19 18 17 17 17 18 17 18 17 16 16 17 17 12 12 20 22 22 20 16 15 15 14 13 12 13 14 15 17 17 15 15 14 12 11 9 8 8 7 8 10 9 9 9 9 8 8 8
7 7 7 6 7 4 7 17 21 20 17 14 14 16 18 18 17 18 19 19 18 18 17 16 14 16 18 17 16 15 14 17 16 14 15 15 14 14 13 14 15 16 18 18 17 16 15 14 13 12 10 9 7 8 9 9 8 7 7 6 6 7
10 10 10 8 7 5 4 11 18 20 17 15 15 15 17 17 17 19 20 20 19 18 17 16 13 14 18 19 19 16 15 18 15 13 15 15 14 14 14 15 16 18 19 20 20 19 17 16 14 13 11 10 9 8 8 8 7 6 5 5 5 6
11 12 12 12 9 6 5 7 13 18 16 13 13 14 15 17 18 19 20 22 21 19 18 18 16 14 17 19 19 19 20 20 17 14 15 15 15 14 14 15 16 18 20 21 22 22 20 17 16 14 12 11 11 10 8 8 6 5 4 4 5 5
11 12 13 13 11 7 6 7 8 14 17 14 14 15 17 18 20 20 22 23 23 22 21 21 20 17 16 17 18 19 20 19 17 16 15 15 15 15 14 14 14 17 20 22 23 24 23 20 17 16 14 13 13 11 10 9 6 5 4 4 5 5
11 12 12 11 10 9 7 8 8 12 18 19 18 18 20 21 21 22 23 24 25 24 23 23 23 21 18 17 18 19 19 19 18 17 17 17 16 15 14 12 12 15 18 22 25 26 25 22 19 17 16 15 14 13 11 10 7 6 5 5 5 5
13 12 12 12 10 9 8 8 8 10 13 19 22 20 20 21 21 22 22 23 25 25 25 25 25 24 21 19 19 20 20 20 20 19 19 18 16 15 14 13 12 13 17 22 25 27 26 24 22 19 18 17 15 14 12 10 9 8 8 7 6 5
16 15 14 13 12 10 9 9 7 8 8 10 19 22 21 21 21 22 22 23 25 26 26 26 26 25 24 23 21 21 21 22 21 19 19 17 16 15 13 13 13 13 16 21 25 28 28 25 24 22 20 19 17 15 14 12 11 10 9 9 7 6
15 17 17 16 15 13 11 11 10 10 11 9 11 18 22 24 23 23 23 24 25 26 28 28 27 26 26 26 25 23 22 22 21 20 19 17 14 13 12 12 13 13 15 20 24 28 29 26 25 24 22 20 19 17 15 14 13 12 11 10 9 8
12 14 16 17 18 18 15 14 13 13 14 13 12 13 17 23 26 26 25 26 26 27 29 30 29 28 27 28 28 27 25 24 22 20 20 17 15 12 12 11 11 12 14 18 23 28 30 28 26 25 24 22 20 19 17 16 15 14 13 12 11 9
10 12 13 15 17 20 20 18 17 18 18 17 16 16 16 20 26 30 29 28 29 29 30 30 31 30 29 29 29 29 28 26 23 21 19 18 15 12 11 11 11 12 13 17 23 28 30 29 27 26 25 23 22 20 18 17 16 15 15 14 12 11
9 11 13 14 15 18 21 22 22 22 23 22 21 20 19 20 22 27 32 32 31 32 31 30 31 32 31 30 29 29 29 28 25 21 19 18 15 13 12 12 12 13 13 16 22 28 31 29 27 27 26 24 23 21 19 18 17 16 16 15 14 12
11 10 12 14 15 16 18 21 23 24 26 27 25 24 23 23 21 20 28 35 34 33 32 31 32 33 33 32 31 31 30 29 28 24 21 19 16 14 13 12 13 14 14 15 21 28 31 30 26 26 26 24 23 21 20 18 17 16 16 16 14 13
14 13 12 14 15 16 17 18 20 22 25 27 27 27 25 25 23 19 23 33 37 36 35 34 32 30 33 34 33 33 33 30 29 27 25 22 19 16 14 14 13 15 16 15 20 27 32 30 26 25 24 23 22 21 20 19 17 17 16 16 15 14
15 15 15 14 15 16 17 18 19 20 21 24 25 26 26 26 25 21 21 26 33 38 38 36 33 30 30 34 36 35 34 34 30 28 27 25 21 19 16 15 14 15 17 17 20 26 31 30 26 24 22 22 22 21 21 20 19 18 17 17 16 15
17 18 18 17 17 17 18 18 18 19 19 21 22 22 23 24 25 24 22 22 25 32 37 39 37 32 29 30 37 39 36 35 34 28 27 26 23 21 19 16 16 16 17 19 20 24 30 32 30 26 24 22 21 21 21 21 20 19 18 18 17 16
17 18 18 19 19 19 19 19 19 19 19 20 20 19 19 20 21 22 23 25 24 25 29 37 40 38 34 28 30 40 42 37 35 31 27 27 24 21 21 18 16 17 18 21 22 23 27 29 29 27 25 24 23 22 21 20 20 19 20 19 18 18
13 15 17 19 19 19 18 19 20 20 20 20 21 20 19 19 20 19 21 25 27 26 25 31 38 41 41 34 26 32 43 41 36 33 28 27 26 23 22 20 18 18 20 22 23 23 25 25 25 23 22 21 21 20 19 18 19 20 21 20 19 18
12 14 16 18 20 20 19 17 18 20 20 21 22 22 22 21 21 19 19 21 25 28 28 29 33 36 39 37 29 25 36 43 38 33 30 29 28 26 23 21 20 20 21 23 24 24 24 24 23 20 18 17 18 18 17 18 19 20 21 21 18 17
12 13 15 18 21 22 22 20 19 18 19 20 21 22 23 23 22 20 19 19 21 25 29 30 32 34 35 34 28 21 28 41 40 34 32 31 29 26 24 22 20 21 23 25 25 25 24 23 22 20 19 19 19 18 16 18 19 21 21 18 15 15
13 13 15 19 21 22 23 24 23 21 19 19 20 21 22 22 22 22 20 18 18 21 25 29 30 31 34 33 29 23 23 34 39 37 35 32 30 28 26 25 23 24 25 26 27 26 25 25 25 24 22 20 20 19 18 19 20 21 21 16 13 14
15 14 16 20 22 22 23 23 24 24 22 20 18 20 22 22 22 23 23 20 18 19 21 25 28 28 29 30 29 27 26 30 34 37 38 35 33 31 30 28 27 26 27 28 28 27 27 28 28 26 24 23 22 21 21 22 23 22 20 16 14 14
17 17 18 21 22 22 23 23 23 24 24 22 20 18 20 21 22 23 24 23 21 19 19 20 24 26 26 26 27 27 28 31 32 33 37 38 36 34 33 32 31 29 29 30 30 29 29 28 29 28 27 26 23 21 22 22 24 24 20 17 17 16
20 19 21 23 23 22 23 24 23 22 23 23 22 19 19 20 21 23 24 23 23 21 20 19 20 23 25 26 27 27 28 30 32 32 34 36 37 36 35 35 34 33 32 33 32 31 31 30 31 31 31 29 23 20 24 22 20 21 21 19 18 17
20 21 23 24 25 24 24 25 24 23 22 22 22 20 20 21 21 22 24 24 24 23 22 21 19 20 22 25 27 28 29 30 30 33 35 36 37 38 39 38 36 36 36 35 33 32 33 32 32 32 33 32 25 21 23 22 19 19 20 20 19 18
20 21 23 25 25 26 26 26 24 23 23 23 22 21 20 23 23 23 24 24 24 24 23 22 21 19 20 23 26 28 29 30 31 32 35 39 40 39 41 42 39 38 38 38 37 36 35 33 33 34 35 34 31 26 23 20 18 17 18 21 21 20
21 21 23 25 26 27 28 27 25 23 23 22 22 21 20 22 24 24 24 24 24 24 23 21 21 20 19 21 24 27 28 30 32 32 34 39 41 39 39 42 42 40 40 40 39 38 37 36 35 36 37 36 35 32 28 24 19 15 17 20 21 22
21 21 23 25 26 28 29 28 26 24 23 22 21 21 20 21 23 24 25 25 24 23 22 22 21 20 19 20 22 26 28 30 32 33 33 35 37 37 36 38 42 44 44 42 40 40 39 38 37 36 37 38 38 36 33 29 23 17 16 18 20 23
20 20 22 24 26 28 29 28 27 24 23 22 21 21 21 21 21 23 25 24 23 21 20 21 21 20 20 20 21 24 28 30 32 33 33 34 34 34 34 37 41 44 44 42 41 42 41 40 38 38 37 38 39 40 38 34 31 25 20 19 20 22
19 20 21 23 26 27 28 28 27 25 24 23 23 23 22 22 22 23 24 24 24 23 21 20 20 21 21 21 21 23 26 30 32 33 34 35 35 34 33 35 39 42 43 43 44 44 43 42 40 39 39 38 39 40 40 38 36 32 28 24 22 23
17 18 20 23 25 27 27 27 26 25 24 23 23 24 24 24 24 25 26 27 28 27 26 24 22 21 22 22 21 22 25 29 32 34 34 35 36 36 35 35 38 41 44 46 46 46 44 44 42 40 40 41 41 40 40 39 36 33 31 27 24 23
17 17 20 23 25 26 26 26 25 25 24 24 24 24 25 26 27 28 29 30 30 31 31 29 27 25 23 22 22 22 24 27 31 33 33 33 35 37 36 36 37 40 44 47 49 47 44 42 42 42 42 42 42 41 40 39 36 33 31 28 25 24
17 17 19 22 25 26 24 24 24 25 25 24 25 25 26 27 28 29 31 32 33 33 33 32 31 30 26 24 23 22 23 25 28 32 34 33 34 36 37 37 37 40 42 45 48 48 45 42 41 43 44 43 44 44 42 40 37 34 32 30 27 26
17 17 19 21 23 24 24 23 23 24 24 25 25 26 27 29 30 31 32 33 34 34 34 34 32 31 29 26 25 24 23 24 26 30 34 34 33 34 37 38 38 39 41 43 47 49 47 43 42 43 45 46 46 45 43 42 39 35 33 32 29 27
18 17 19 21 22 24 24 23 23 23 24 24 25 26 27 28 30 31 32 33 34 35 35 35 34 33 31 29 27 26 25 24 24 28 33 36 35 34 35 38 38 39 42 44 45 48 48 46 43 44 47 47 47 46 44 42 40 37 35 34 32 29
19 17 19 20 21 23 24 24 24 23 24 24 24 25 26 27 28 30 31 32 33 34 34 35 35 34 33 31 29 28 27 25 24 26 31 36 38 36 34 37 38 38 42 45 46 47 50 49 46 46 48 48 48 47 45 43 41 39 36 35 35 33

ECMWFFLT2_850_spd_006.txt.gz
Wind_Speed
4 3 2 3 3 5 10 12 13 14 12 11 11 8 8 12 13 12 12 11 11 11 11 10 11 11 12 12 11 12 12 12 11 10 10 9 8 6 8 8 8 10 10 9 9 7 5 4 3 4 6 8 10 9 8 8 8 7 5 8 8 10
2 2 3 3 3 2 8 13 14 15 12 12 12 9 9 12 12 10 10 11 10 11 11 11 13 12 13 14 14 13 12 13 13 12 11 10 9 7 7 8 8 9 10 9 8 6 4 3 3 4 6 7 8 6 7 9 8 6 6 7 8 11
2 1 2 3 4 2 7 13 14 14 14 14 13 10 10 12 12 10 10 10 10 10 10 11 12 11 11 13 15 15 13 14 14 13 12 11 9 8 7 8 7 7 8 7 6 6 5 3 3 4 7 7 7 6 8 8 7 6 7 7 9 12
4 2 2 1 2 2 6 12 13 14 15 15 14 12 12 13 12 12 12 11 10 10 11 11 11 10 10 11 15 17 15 17 16 14 13 12 11 9 8 8 8 6 6 7 7 6 6 6 5 4 7 7 7 8 8 7 6 6 7 8 11 12
5 4 3 2 1 1 2 10 13 14 15 14 14 13 13 15 14 13 14 12 10 11 12 12 11 11 11 10 14 18 20 19 18 16 14 12 12 11 10 10 9 9 8 8 8 8 8 7 7 6 7 7 8 9 8 7 7 6 7 9 12 13
6 5 4 4 1 1 0 7 13 14 14 14 14 14 15 16 16 16 15 12 11 13 13 11 12 13 12 11 12 17 21 19 18 17 14 13 13 12 12 11 11 11 10 10 10 9 9 8 8 8 8 8 8 9 8 7 8 8 7 9 12 13
6 5 3 3 2 1 1 4 11 14 15 15 15 15 16 17 17 17 16 15 14 13 13 12 13 14 12 12 13 16 19 18 18 16 15 16 14 12 13 11 11 12 11 10 10 11 11 9 9 9 8 8 8 9 9 8 8 8 7 7 10 13
4 4 2 0 1 1 1 1 5 10 13 15 16 15 15 17 17 17 17 17 15 13 13 13 15 15 13 13 14 17 18 18 19 16 15 16 14 12 13 11 10 11 10 10 11 11 11 11 10 10 10 10 9 10 10 9 8 8 7 6 9 12
4 3 2 1 1 2 3 3 2 3 7 10 14 15 15 16 16 17 18 18 17 16 15 15 16 17 15 15 15 18 19 20 19 16 15 15 14 14 12 12 10 9 10 10 10 10 11 12 12 11 11 11 10 11 11 10 9 9 8 6 7 11
5 3 2 1 2 3 4 4 3 3 2 4 8 12 13 15 17 18 19 19 20 18 18 18 17 16 17 16 16 18 20 20 19 18 17 14 15 16 13 11 10 9 10 11 10 10 10 12 13 13 12 12 11 11 11 10 10 9 8 8 7 10
5 4 4 3 1 2 4 5 6 5 4 4 5 6 7 10 14 19 21 21 21 20 19 21 19 16 17 16 16 18 19 19 19 19 17 13 15 16 13 12 11 11 12 12 12 12 11 11 13 13 13 13 12 12 12 11 11 10 9 9 7 9
6 5 5 4 2 0 2 4 6 7 8 7 7 7 8 8 8 13 19 20 20 21 21 22 21 17 17 18 18 20 20 19 19 19 16 14 14 15 15 15 13 13 13 13 14 15 14 12 13 13 14 14 14 13 13 12 12 11 10 10 9 8
9 8 7 5 4 3 2 2 4 6 8 9 9 10 10 10 9 9 14 18 19 20 21 21 22 20 18 18 20 21 22 21 19 19 18 16 15 15 16 17 15 14 15 16 17 19 17 14 14 14 14 14 15 14 13 13 13 12 12 11 10 9
12 11 11 10 9 8 6 5 5 5 7 8 9 10 11 11 11 10 12 16 17 19 21 21 22 22 21 20 19 21 21 20 19 19 19 18 17 18 18 17 17 16 17 18 18 20 19 16 15 14 15 15 16 16 15 14 14 13 13 12 11 10
15 15 15 15 15 13 12 10 9 8 7 7 9 10 11 10 10 11 12 15 15 16 19 22 24 23 23 23 22 23 22 21 21 19 20 21 18 19 21 20 19 17 17 18 16 18 19 16 15 14 15 16 16 16 16 15 15 14 14 13 12 12
15 16 16 17 17 16 15 14 12 11 9 8 8 10 11 10 9 9 10 12 14 15 16 20 25 25 23 24 25 26 25 24 24 20 20 22 20 18 19 21 21 19 18 17 14 15 17 16 15 15 15 16 16 16 16 16 16 15 14 14 13 13
13 14 15 16 17 17 17 16 15 14 12 10 8 9 10 10 9 9 9 9 11 15 16 18 22 26 26 25 26 27 26 26 27 25 23 21 21 20 18 18 21 23 22 19 13 12 14 14 15 15 15 17 17 17 17 16 17 15 15 15 15 14
8 9 11 12 14 16 16 17 18 17 15 12 10 9 9 10 10 9 9 9 9 11 16 18 19 23 27 28 28 27 27 29 29 30 30 26 24 26 25 21 20 22 23 21 15 12 13 13 13 13 15 17 17 17 17 17 17 16 16 16 15 15
3 4 6 8 11 14 15 17 18 20 20 16 12 10 10 10 10 10 10 10 10 10 13 17 19 21 24 28 31 30 27 30 30 30 31 31 30 30 31 29 23 22 23 21 16 13 13 13 12 13 14 16 17 17 17 17 18 17 17 17 16 16
3 3 5 6 8 11 13 14 16 20 22 20 15 11 10 10 10 10 10 10 11 11 12 15 18 21 22 25 29 31 32 34 33 30 29 31 32 32 33 32 30 27 26 24 18 15 14 14 13 13 14 14 15 17 17 18 19 18 17 18 18 17
5 5 5 6 7 8 10 13 16 18 21 21 18 12 9 10 10 9 9 10 10 12 13 14 16 19 21 23 25 28 33 36 35 34 33 32 32 32 33 33 33 32 31 28 20 16 16 15 13 13 14 14 15 15 17 19 18 18 18 19 19 18
6 5 5 5 6 8 10 13 15 18 21 22 18 13 10 9 10 10 10 10 11 11 12 14 15 17 19 21 22 24 27 30 30 32 35 36 34 32 33 35 35 33 32 32 24 18 18 17 16 16 16 14 15 15 16 19 19 19 21 21 20 19
8 6 6 5 5 7 10 12 14 17 20 21 18 13 10 10 10 10 8 8 10 11 13 14 15 17 17 19 20 21 22 24 26 28 33 36 35 32 31 31 33 32 31 34 31 23 20 20 18 16 16 15 15 16 17 19 21 22 23 22 21 20
9 8 7 6 5 7 10 13 15 18 20 22 21 14 9 8 8 7 6 5 6 8 11 13 14 16 17 19 20 20 20 21 22 25 29 33 34 33 31 27 27 29 32 36 36 28 23 24 22 18 17 16 15 16 17 19 22 24 24 24 23 22
11 10 9 7 6 7 10 13 16 19 20 23 22 16 9 7 7 6 5 5 6 6 7 10 13 14 15 17 19 20 20 20 20 20 22 28 31 32 34 33 30 30 32 37 37 29 23 25 27 23 20 17 15 16 16 16 17 19 22 24 24 23
12 12 10 8 6 7 8 10 13 15 17 20 19 16 12 10 8 7 6 5 6 6 7 8 11 13 14 16 17 19 20 21 20 18 19 22 25 27 31 35 35 32 32 36 36 30 25 27 28 26 24 21 17 14 12 13 14 14 16 19 21 23
14 13 12 9 8 7 8 9 11 12 14 17 18 17 15 13 10 8 7 7 6 6 6 7 9 10 12 13 14 17 18 20 21 20 20 19 20 25 27 28 30 31 31 35 38 35 30 28 27 28 28 26 22 17 13 12 14 13 13 16 19 21
16 15 14 12 10 9 8 8 9 11 12 14 16 17 17 15 13 10 8 8 8 7 7 7 7 9 10 11 12 13 15 18 20 21 22 20 18 22 26 25 27 31 33 34 38 39 35 30 27 28 29 28 26 23 19 16 15 14 14 15 16 19
18 17 16 14 11 10 9 8 8 9 10 11 13 15 16 16 15 13 10 9 9 10 10 8 7 8 9 9 10 11 12 15 18 20 23 24 22 21 23 25 27 30 32 35 36 38 38 34 29 28 29 29 28 26 25 22 19 18 18 17 17 17
19 19 18 15 13 12 11 9 7 8 8 9 10 12 14 15 15 14 13 11 10 10 10 10 10 9 9 9 10 11 11 12 15 19 22 25 26 25 24 24 27 28 30 33 36 37 39 38 34 32 31 30 30 28 27 26 25 22 22 21 19 17
21 21 19 17 15 13 12 10 8 8 8 8 8 9 11 13 15 15 15 15 13 11 10 11 11 11 10 10 11 11 11 12 13 15 20 25 28 29 27 25 25 29 31 32 36 38 40 42 41 40 39 35 34 33 29 28 29 26 24 23 21 18
22 22 21 19 17 15 14 12 10 9 9 8 8 8 8 10 13 15 16 16 16 15 15 14 12 11 10 10 12 12 11 12 13 13 17 23 27 30 30 28 26 28 31 33 36 38 40 43 43 43 44 42 40 38 34 30 29 28 26 24 22 21
23 23 22 20 18 17 16 14 12 12 11 10 9 8 8 9 11 13 15 16 18 18 19 18 17 15 13 12 14 15 13 12 12 12 14 18 25 29 30 31 30 29 31 33 34 35 39 44 45 43 43 44 44 43 41 36 30 29 28 25 24 23
23 23 22 21 20 18 17 16 15 14 13 12 11 10 10 10 10 12 14 16 18 19 21 22 23 23 20 19 18 18 17 16 15 14 14 15 19 26 31 33 33 32 32 33 33 34 37 41 43 42 42 43 45 46 47 44 37 33 31 28 27 25
22 23 22 21 21 20 19 17 16 15 14 13 12 12 12 12 12 12 14 16 18 20 22 24 25 27 26 25 23 21 20 19 19 18 18 17 17 20 26 31 35 36 36 34 33 34 36 38 41 43 45 45 46 47 49 49 45 40 35 30 28 28
21 22 21 22 22 21 20 19 17 16 15 14 13 13 14 14 14 15 15 16 18 20 23 25 27 29 29 29 27 24 22 21 21 20 20 20 17 16 19 25 31 37 41 39 36 34 34 36 39 41 45 46 48 49 48 48 49 46 43 36 31 30
19 20 21 22 23 22 21 19 18 17 16 15 15 15 16 17 18 18 18 18 20 21 23 25 28 30 31 30 28 26 25 23 22 21 20 19 18 17 17 19 23 28 37 42 43 39 34 34 38 41 45 47 50 51 48 48 49 48 49 46 38 34

ECMWFFLT2_850_spd_009.txt.gz
Wind_Speed
3 4 3 5 8 9 10 12 11 11 9 9 8 6 8 10 12 12 11 12 11 11 11 12 12 12 12 12 12 12 10 10 9 8 7 6 4 5 6 6 6 7 8 7 6 5 5 5 7 7 7 8 7 9 9 3 3 4 1 3 9 15
2 2 2 2 5 7 10 12 12 12 11 11 11 7 8 11 12 11 11 11 11 12 12 13 14 13 14 14 14 13 10 11 10 9 8 7 5 5 7 8 8 8 8 7 7 5 3 2 4 6 7 7 8 10 5 4 6 3 1 3 12 16
2 2 1 1 2 4 7 11 12 12 13 14 13 10 9 11 11 10 11 11 11 12 13 14 14 13 14 15 15 14 12 12 11 10 10 8 7 6 8 10 11 11 10 8 7 5 2 2 1 4 7 9 10 10 4 7 7 3 2 6 16 15
3 3 2 1 1 2 5 10 11 12 14 14 13 11 11 12 12 11 10 10 11 12 13 13 13 12 13 14 14 14 13 13 12 12 10 10 9 6 8 10 12 12 10 9 7 5 5 4 3 3 5 9 9 7 5 8 6 2 3 8 17 15
3 3 3 2 1 2 3 9 11 12 14 13 13 12 13 13 13 12 11 10 11 11 11 12 13 12 12 12 14 16 15 15 13 13 12 11 10 8 8 9 12 12 9 8 5 7 8 6 5 4 4 6 7 6 7 6 6 4 5 10 16 14
3 3 4 3 1 1 1 8 11 11 13 14 13 13 14 14 14 14 14 13 13 13 12 11 11 12 13 12 14 16 17 17 15 14 14 12 10 9 9 9 9 7 5 6 8 8 9 9 7 5 6 7 6 8 8 6 6 6 6 12 16 14
3 3 4 4 1 0 1 4 11 11 12 13 13 14 14 14 16 16 15 15 15 13 12 12 12 12 12 11 13 16 16 18 17 15 14 13 12 10 10 12 9 7 7 8 8 8 9 10 10 8 7 8 7 8 8 6 7 7 7 10 14 12
3 4 4 5 4 2 2 0 6 11 14 14 14 15 15 16 18 17 16 16 15 13 13 14 14 11 9 9 11 13 15 17 18 15 14 14 14 12 12 14 12 10 10 9 8 9 9 9 11 11 8 9 9 9 9 7 7 8 7 9 14 13
4 4 4 5 4 4 4 2 2 5 12 15 15 17 18 18 17 16 17 17 16 14 15 15 13 9 8 9 10 10 12 17 18 17 15 14 15 13 13 14 12 12 11 9 9 9 9 9 10 12 10 10 11 10 10 9 8 8 8 8 13 14
4 5 5 4 4 4 4 4 2 1 3 9 14 19 20 19 17 16 16 17 18 16 16 16 13 11 12 11 10 8 9 13 17 17 16 15 15 12 12 13 12 12 11 9 9 10 10 9 10 10 10 11 12 11 11 11 9 9 8 7 10 15
3 5 6 4 4 4 3 3 3 3 1 4 7 10 15 17 17 17 17 17 20 18 14 16 16 16 14 13 12 11 10 10 13 14 13 12 13 12 12 13 12 10 9 9 9 10 10 9 10 10 11 11 11 12 12 12 11 10 9 8 10 15
3 4 6 5 4 4 4 2 2 3 2 5 3 2 5 9 12 14 16 16 19 16 12 13 16 17 16 14 14 14 13 12 13 13 12 11 11 12 13 13 12 8 9 10 10 10 10 10 10 10 11 12 12 12 12 13 12 11 11 10 9 12
6 6 6 6 6 4 4 4 2 2 2 4 3 3 2 6 8 9 12 14 16 16 13 13 13 16 17 15 14 16 15 14 14 13 12 12 12 13 13 12 12 12 12 12 11 11 11 11 11 10 11 12 13 13 12 13 13 12 12 11 10 9
12 11 10 9 9 7 6 6 4 2 1 1 1 3 3 6 8 8 10 11 13 15 15 15 13 14 16 16 15 16 16 15 16 15 14 13 13 12 12 12 12 13 13 12 11 11 12 12 12 11 12 12 12 13 13 13 13 13 13 12 11 10
15 14 14 13 13 12 11 9 7 5 3 1 1 2 3 4 4 6 9 11 13 13 13 14 14 13 14 17 18 17 16 16 18 19 16 15 15 13 13 13 12 12 11 11 11 11 12 12 12 12 12 13 13 13 14 14 13 14 14 13 12 12
15 14 14 13 14 14 14 13 12 11 9 5 3 1 3 3 2 4 6 7 11 13 13 13 14 15 15 17 19 19 18 17 18 19 16 16 18 15 14 14 13 13 12 11 11 11 11 11 12 13 12 13 14 13 14 14 15 15 15 14 14 13
12 11 11 11 11 12 13 13 12 14 15 12 7 3 3 4 2 3 4 4 9 11 13 15 13 14 17 18 20 19 18 19 21 20 17 19 21 19 17 15 13 15 15 13 13 12 13 12 11 12 13 14 14 14 15 14 15 16 16 16 15 14
7 7 8 8 9 11 12 12 12 13 15 13 9 8 6 2 2 3 4 6 9 9 11 15 14 13 17 19 20 19 17 20 22 23 22 20 20 20 19 17 15 15 16 15 15 14 14 13 12 12 12 14 15 15 15 15 15 16 16 17 17 15
3 2 3 6 8 10 10 9 10 9 11 11 8 10 8 1 3 3 5 8 10 8 9 13 14 16 16 16 18 21 21 19 18 23 25 21 20 21 20 20 18 16 16 16 16 16 16 14 13 13 12 13 15 15 15 16 16 17 18 18 18 17
3 1 2 4 5 4 5 5 6 7 8 10 9 10 8 4 3 3 7 8 8 9 11 11 13 15 17 17 17 19 21 19 17 20 24 25 26 26 22 21 21 20 20 18 17 17 17 15 13 13 13 12 14 15 15 17 17 17 18 18 18 19
7 4 2 2 2 1 2 3 5 7 8 9 10 10 7 7 6 5 9 8 7 10 12 13 13 13 15 17 17 17 19 20 20 20 21 22 25 26 26 25 25 25 24 22 21 19 17 15 14 15 15 13 14 15 15 17 17 17 18 19 19 19
8 6 5 4 3 1 0 2 3 6 8 8 11 14 8 7 9 7 8 8 7 10 12 12 13 14 14 15 15 17 18 19 20 22 23 23 24 25 27 28 28 28 28 26 24 24 21 17 17 18 16 13 14 16 16 17 18 18 19 20 20 20
10 8 7 5 3 2 3 3 3 6 7 7 12 19 15 11 10 6 5 5 5 8 12 12 11 11 11 13 14 15 16 15 16 20 22 23 25 27 29 30 30 30 30 27 25 25 25 24 22 18 16 15 15 15 16 18 20 21 21 21 20 20
12 9 9 7 5 5 5 5 5 7 10 11 13 16 15 11 9 6 4 3 4 7 11 11 10 9 8 9 9 12 13 12 12 14 15 16 19 23 28 30 31 32 33 31 29 27 27 29 27 20 17 17 16 16 17 18 20 22 22 22 22 22
13 11 11 10 8 7 5 5 6 7 8 10 9 9 10 10 8 6 4 4 6 9 9 9 10 10 9 9 8 9 10 11 12 13 13 14 15 18 24 27 29 32 34 34 33 32 31 31 31 26 20 18 16 16 17 16 17 20 20 22 23 23
15 13 13 12 10 7 3 2 2 1 2 3 3 6 11 13 10 6 5 6 7 9 8 8 9 9 10 11 11 10 10 11 12 13 13 14 14 16 20 23 26 29 32 34 32 32 32 31 31 30 27 24 20 19 17 16 15 17 18 21 21 22
16 14 15 14 12 9 5 5 4 3 2 1 1 5 11 13 12 10 7 6 5 6 8 7 7 8 9 10 11 12 12 12 12 14 15 16 16 15 17 19 23 26 30 33 32 32 31 29 28 32 34 31 27 27 22 18 17 16 15 18 20 20
16 15 17 15 14 11 7 7 7 5 3 1 3 7 10 11 11 11 11 9 5 4 5 7 7 8 8 9 10 11 12 12 13 14 15 17 17 17 17 18 20 22 25 28 31 33 34 32 30 32 37 37 32 31 28 22 20 18 16 14 17 20
18 17 18 17 15 14 11 10 9 6 4 3 5 6 6 6 9 10 11 11 9 6 5 6 7 8 8 8 10 10 11 12 14 14 15 16 17 18 19 20 20 20 22 24 27 30 32 33 33 32 36 38 35 34 31 26 23 21 21 19 17 17
19 19 20 19 17 17 15 13 11 9 7 6 5 5 4 6 8 9 9 10 10 9 7 7 7 8 8 9 9 10 11 12 13 14 15 17 18 20 21 23 23 20 21 24 26 28 31 33 33 33 36 37 35 34 33 29 26 24 23 22 22 20
20 20 22 21 20 19 18 15 14 13 11 9 7 6 6 7 8 8 8 10 10 8 8 9 11 10 10 11 10 11 13 13 13 14 15 17 19 20 22 25 26 23 22 24 27 30 31 33 34 34 38 39 36 34 33 32 30 26 24 24 24 24
21 22 23 23 22 21 20 18 17 16 14 12 10 8 8 8 8 9 9 10 9 8 8 9 10 10 10 12 13 14 15 15 15 14 14 16 18 19 20 23 25 26 26 24 26 30 32 32 33 35 39 41 38 36 34 33 32 29 25 24 23 25
22 23 24 25 23 22 21 20 19 18 16 14 12 10 10 10 10 10 9 10 10 9 9 9 10 12 13 15 17 17 18 17 17 16 16 17 18 18 19 20 22 25 28 28 26 30 32 31 31 33 37 41 42 41 39 36 35 35 30 26 24 25
22 23 25 25 23 22 22 21 21 19 17 16 14 12 11 11 11 10 10 11 12 12 12 13 14 16 18 20 20 21 21 21 20 19 20 20 21 19 19 20 22 24 28 30 30 30 31 32 32 33 34 38 42 45 44 41 41 41 38 35 33 30
22 23 24 24 23 23 22 22 22 21 19 17 16 14 13 13 12 12 12 13 14 14 15 16 17 19 21 23 24 25 26 26 24 22 22 22 22 22 21 21 22 24 25 28 32 33 31 31 34 35 34 35 38 43 46 45 45 46 42 40 40 37
20 21 23 22 22 22 22 23 23 21 20 19 17 16 15 15 15 14 14 14 15 16 17 18 19 21 23 25 27 28 29 30 28 26 24 23 22 23 24 24 22 23 26 27 30 34 34 33 34 36 36 37 38 40 44 44 44 46 45 43 42 41
18 19 21 21 21 22 23 24 23 22 22 20 19 18 16 16 16 16 16 17 18 19 20 21 22 23 25 26 28 30 31 30 29 27 25 24 23 22 23 24 22 21 24 26 26 29 33 35 34 33 34 37 39 39 41 42 43 45 45 46 45 43

ECMWFFLT2_850_spd_015.txt.gz
Wind_Speed
10 12 13 14 13 13 12 12 11 10 9 8 7 7 8 9 9 8 8 8 7 7 7 8 8 7 6 8 8 8 7 6 5 4 3 2 2 2 3 5 5 6 7 8 9 8 9 10 12 17 22 22 20 18 16 13 11 8 6 6 5 4
7 9 10 12 12 12 12 12 12 12 11 9 8 7 8 9 9 9 8 8 8 8 8 8 8 7 8 8 9 8 8 6 5 5 3 2 1 2 2 5 6 7 8 8 7 7 6 7 9 13 19 22 20 19 15 11 10 7 5 4 4 5
7 7 7 8 10 11 13 13 13 13 12 10 10 9 9 9 8 8 8 8 8 8 8 8 8 8 9 9 9 9 8 7 6 5 4 3 1 1 1 4 7 9 9 8 9 9 7 7 7 9 14 20 20 20 15 8 7 5 5 3 4 5
7 7 6 5 6 9 12 14 14 14 13 12 11 10 9 8 7 7 8 7 7 7 8 8 8 9 10 10 10 10 10 8 7 7 6 4 3 1 1 2 5 9 9 10 12 12 11 10 7 5 9 17 21 20 14 8 6 4 5 3 4 5
5 5 5 3 2 5 9 11 13 15 14 14 13 11 10 9 9 9 8 8 8 9 9 9 9 10 11 10 10 10 11 10 8 8 7 6 5 3 2 1 3 8 10 12 12 10 10 11 8 5 6 15 19 20 15 10 7 5 5 4 4 6
6 4 4 4 0 2 5 7 11 15 15 15 14 13 12 12 12 12 11 10 10 10 9 9 9 9 10 10 10 11 12 11 10 9 8 7 6 4 2 4 7 10 11 10 8 6 7 9 7 6 5 15 15 17 17 10 7 7 6 4 5 7
10 5 5 4 1 2 3 4 8 13 14 14 16 16 15 14 14 13 13 13 11 10 10 9 9 9 10 11 10 11 12 12 11 11 10 8 6 4 2 6 9 10 10 9 7 4 4 8 6 4 5 14 12 12 14 8 8 9 7 5 6 8
13 8 8 7 1 2 3 2 6 11 13 13 16 18 17 15 14 14 14 14 13 11 11 9 9 11 12 12 10 11 13 13 13 12 11 9 7 5 4 7 9 9 9 9 8 6 4 5 4 1 4 10 9 8 8 7 11 9 7 8 8 9
15 10 9 10 6 5 4 3 3 8 11 11 13 15 16 16 15 15 15 15 14 13 12 9 9 11 11 12 11 10 12 14 14 13 11 10 8 7 6 8 9 9 8 8 8 8 5 1 1 4 4 6 6 6 5 6 12 10 9 10 10 11
17 13 10 11 10 8 7 6 5 5 8 10 11 13 15 16 15 16 15 15 15 14 13 11 9 10 10 10 11 9 10 13 15 14 12 12 12 10 8 7 9 9 7 7 6 7 8 5 5 7 8 7 6 7 7 7 11 11 9 10 11 12
18 17 14 13 11 10 8 7 7 6 6 8 10 11 14 15 15 16 15 15 14 12 12 12 10 10 10 10 10 8 9 11 13 14 14 14 14 12 11 11 10 10 9 8 4 4 9 9 7 7 9 11 10 9 10 10 10 11 10 9 10 10
17 19 18 15 13 12 10 7 7 7 6 7 8 8 10 12 14 16 16 15 13 11 12 12 11 10 11 12 10 9 8 8 8 12 15 15 15 14 14 14 12 12 10 9 7 6 10 12 9 8 8 9 12 11 10 10 10 11 11 11 11 11
15 15 17 16 15 14 13 10 8 7 8 8 8 8 8 9 10 12 14 13 12 12 12 13 13 13 12 13 12 10 8 7 6 11 14 16 17 16 16 14 12 13 12 11 10 6 10 15 10 9 9 8 10 10 9 10 12 13 13 12 13 13
13 12 11 13 15 15 15 14 12 10 9 8 7 7 6 5 5 6 8 10 10 10 12 13 15 15 14 14 14 12 11 9 9 10 13 16 17 16 17 15 12 14 13 13 11 6 9 15 12 10 10 10 11 10 9 9 11 14 15 14 13 13
11 10 8 10 14 14 12 12 11 11 11 10 9 8 6 5 4 2 3 6 8 8 10 12 15 16 15 14 14 14 13 12 12 11 12 15 17 18 18 16 14 14 15 13 11 9 9 11 11 10 11 11 14 11 9 10 11 14 17 17 13 13
10 9 8 9 12 11 7 5 5 8 10 11 11 10 9 9 6 4 3 5 7 7 9 12 14 16 16 15 14 14 14 14 14 13 13 14 16 19 19 16 16 15 15 15 14 13 11 10 9 11 11 9 13 14 11 11 12 13 16 17 14 14
12 12 12 12 11 11 9 8 8 8 9 9 8 6 9 12 10 7 6 6 6 6 8 10 13 15 17 17 15 13 14 15 15 15 16 17 16 17 17 16 16 16 15 15 16 15 13 14 12 12 10 7 9 13 14 14 13 13 14 16 16 17
13 13 13 14 12 11 10 9 9 8 9 7 5 5 9 12 11 10 10 8 8 7 7 8 11 13 14 17 17 14 14 16 16 16 17 18 18 17 16 15 14 15 15 14 15 16 15 16 15 15 14 12 11 11 12 14 16 16 16 18 18 18
14 13 13 14 13 12 11 9 8 7 6 6 6 6 6 8 8 10 11 11 11 10 9 9 10 11 12 15 17 16 16 17 17 17 19 18 17 17 16 16 15 14 16 16 17 17 17 16 15 17 17 14 14 15 14 13 15 19 20 20 20 18
14 14 14 14 14 13 11 8 6 5 4 5 5 5 4 2 4 5 8 9 10 10 10 10 10 11 12 14 15 15 16 17 17 18 19 17 17 16 15 17 17 17 17 17 17 17 18 19 16 17 17 13 12 15 17 14 13 17 20 20 21 20
14 14 14 14 13 13 10 6 6 5 2 3 4 6 7 4 2 2 6 7 7 8 9 9 9 10 11 12 14 15 16 16 17 17 16 15 17 18 18 18 19 19 19 18 17 17 18 19 18 18 18 17 13 12 16 16 13 14 17 18 20 22
13 13 12 13 14 13 9 6 6 5 1 1 2 6 7 7 7 4 3 5 8 10 9 8 8 8 8 9 11 13 14 15 15 15 14 14 17 20 20 21 21 21 21 20 19 20 20 20 20 19 18 18 16 12 14 16 15 14 16 18 21 23
12 12 10 12 13 12 9 6 6 5 1 0 1 5 9 10 10 9 7 2 4 6 7 7 7 7 7 7 8 10 11 11 12 11 12 14 16 19 19 19 21 22 22 21 20 20 21 21 21 20 18 18 17 14 15 17 17 17 18 18 21 24
13 12 10 12 14 12 10 8 7 5 2 2 3 5 9 10 11 12 10 7 6 5 3 6 8 8 8 9 10 10 10 10 10 9 9 11 13 15 15 15 17 19 21 23 23 22 22 22 22 20 18 16 17 16 17 18 18 19 19 18 18 22
15 14 12 12 12 11 10 8 7 6 4 4 3 4 6 7 9 10 11 10 10 9 5 2 6 8 9 11 12 11 11 11 11 11 11 11 12 12 12 12 13 15 18 21 22 23 24 24 24 23 19 16 15 16 18 18 18 18 18 20 20 21
16 15 14 13 11 10 9 8 7 7 4 4 3 3 2 4 6 8 10 10 11 10 8 6 2 2 6 9 12 13 13 12 12 11 12 13 14 14 13 12 11 12 15 16 17 20 24 26 25 25 24 22 20 19 19 16 15 15 15 19 21 23
17 16 16 15 12 11 10 8 8 7 5 4 5 4 2 3 3 5 7 9 10 11 11 10 9 6 3 3 6 10 12 13 13 12 13 13 14 15 14 12 11 11 12 13 14 18 22 23 23 25 27 27 26 26 25 20 16 12 11 14 17 20
18 17 17 16 14 13 12 10 9 8 7 8 7 6 5 3 2 4 6 7 9 11 11 11 10 9 8 6 4 4 6 8 11 13 14 14 15 15 16 15 14 13 13 13 14 16 19 19 20 24 26 27 28 30 31 29 24 19 16 17 17 17
21 19 17 16 15 14 13 11 11 9 10 11 10 9 7 5 3 3 4 5 7 9 9 9 8 8 8 7 6 6 6 5 6 7 10 12 14 15 16 18 18 17 16 16 16 17 18 19 20 21 22 23 26 28 30 32 30 30 29 27 24 22
24 21 18 17 16 15 14 13 12 11 12 12 11 10 9 7 5 3 3 3 5 7 8 9 8 8 8 8 7 8 8 8 8 7 7 8 10 12 15 17 19 20 20 20 20 20 20 20 21 22 21 21 23 25 27 29 30 33 35 34 32 31
25 23 20 19 17 16 15 15 13 12 12 12 11 11 10 8 7 6 5 4 5 6 7 8 9 9 9 9 10 10 11 11 11 11 10 10 10 11 12 14 17 20 22 23 23 23 23 23 22 23 23 22 24 25 25 27 28 30 34 36 36 36
27 24 22 20 18 18 17 16 15 13 13 13 12 12 11 9 9 9 7 6 5 6 6 7 9 10 10 11 12 12 13 13 14 13 13 14 14 14 14 14 15 18 21 24 25 25 26 26 25 25 24 24 25 26 26 26 27 27 30 33 33 34
29 26 23 21 20 20 19 17 16 15 14 14 14 13 12 12 12 11 9 7 7 6 6 7 8 9 10 11 12 13 14 14 14 15 15 17 18 18 18 17 17 17 19 21 23 25 27 28 27 26 26 26 26 27 27 27 28 28 28 31 31 33
30 27 25 23 22 21 20 18 17 15 15 15 15 15 14 14 14 13 11 10 9 8 7 7 7 8 10 11 13 14 15 16 16 16 17 18 19 18 18 18 19 19 20 21 23 25 27 28 28 27 27 28 28 28 28 27 28 29 29 31 32 33
32 29 27 25 24 22 21 20 18 16 15 15 15 15 15 15 15 14 13 12 11 10 9 9 9 10 11 13 14 15 17 17 18 18 19 20 19 18 16 16 17 19 20 21 23 26 28 29 29 28 28 29 30 30 29 28 27 29 30 31 32 33
32 31 29 27 25 23 22 21 19 17 15 15 15 15 16 17 17 16 15 14 13 12 11 11 11 12 13 14 15 16 17 18 19 20 20 20 20 18 17 16 15 16 19 21 23 25 27 29 30 30 29 29 30 31 32 31 29 28 28 30 31 33
33 32 30 28 26 24 23 21 20 17 15 14 14 14 15 16 17 18 17 16 14 13 13 13 13 14 15 15 16 17 18 19 20 21 21 21 21 19 18 17 17 17 16 17 21 24 26 27 28 29 29 28 27 30 33 33 33 31 30 29 30 31

ECMWFFLT2_850_spd_021.txt.gz
Wind_Speed
15 15 15 14 13 12 12 12 11 11 10 10 10 10 11 12 12 12 12 12 12 11 10 11 11 11 12 10 8 7 7 6 4 5 5 4 3 3 4 6 10 13 20 23 20 23 25 22 19 16 13 13 13 12 10 10 9 8 6 4 3 3
16 15 15 14 13 13 13 13 12 11 10 10 10 10 10 10 11 13 13 13 13 12 11 11 11 12 11 10 10 9 8 7 5 5 5 4 3 3 4 6 9 12 19 25 21 21 24 23 20 16 13 13 14 13 11 10 8 8 6 5 3 2
16 15 15 14 14 14 14 13 12 11 11 11 10 10 10 11 12 13 14 13 13 12 11 11 12 12 11 10 11 10 9 8 6 6 6 5 4 3 3 5 9 11 17 25 23 19 22 23 21 17 13 13 14 13 12 10 9 7 6 5 4 2
14 14 15 15 16 15 15 14 13 12 11 12 11 11 11 12 13 14 14 13 13 12 12 12 13 12 11 10 11 11 10 9 8 8 7 6 4 3 3 4 8 11 16 24 24 19 20 22 22 18 14 14 14 14 12 11 10 8 6 5 4 3
13 13 14 15 16 16 16 16 15 13 13 13 12 12 12 13 14 15 15 14 13 12 12 13 13 13 11 11 11 11 11 10 9 9 8 6 4 3 3 3 6 11 15 22 24 20 18 20 22 20 16 15 15 14 12 12 10 9 8 6 4 3
12 12 12 13 14 16 17 16 16 15 14 15 15 15 14 13 14 16 16 14 14 13 13 13 12 12 11 11 12 12 12 12 11 10 8 6 5 3 3 4 6 11 15 19 22 20 18 19 21 21 18 15 15 14 13 12 11 9 8 6 5 4
12 13 12 12 13 14 15 15 16 16 16 17 17 17 16 14 13 14 15 15 14 13 12 12 12 12 11 12 11 12 13 13 12 11 9 8 6 3 2 3 6 12 16 19 20 19 19 19 21 22 19 16 15 15 14 12 11 10 8 6 5 5
11 12 12 13 12 12 13 13 14 15 16 18 19 18 17 16 13 12 14 15 14 13 12 12 12 11 11 11 11 11 13 13 13 12 10 9 8 5 3 3 7 15 17 18 18 18 18 19 21 22 21 18 15 15 14 13 11 10 9 7 6 5
12 12 12 13 14 13 12 12 13 13 14 17 19 19 18 17 14 12 13 14 14 13 12 11 11 11 11 12 11 12 13 13 13 13 12 11 9 8 7 6 9 17 18 17 17 16 16 18 21 24 23 19 17 15 14 13 11 10 10 10 8 7
13 13 13 14 15 14 13 12 13 12 13 15 17 19 19 19 17 14 14 14 14 13 12 11 10 10 11 12 12 14 15 15 14 13 13 11 11 11 11 10 11 17 17 15 16 16 15 15 18 22 23 20 17 15 14 13 12 11 11 12 11 9
12 13 13 14 14 14 13 13 13 13 13 14 17 18 20 20 18 16 15 14 14 14 13 13 11 11 12 12 13 14 15 16 14 14 14 13 13 13 14 14 13 16 16 14 14 14 13 14 15 18 20 19 17 15 14 14 12 11 11 10 9 8
12 13 13 14 14 13 12 11 11 12 13 14 16 17 17 19 19 17 16 14 14 14 14 14 13 13 14 14 13 13 14 14 14 15 16 15 15 15 16 17 16 16 16 15 13 12 12 13 15 16 18 18 18 16 15 15 13 11 10 8 7 6
13 13 13 13 13 12 11 10 9 10 12 13 14 13 12 14 17 18 17 15 14 14 14 15 15 15 16 16 15 13 12 12 13 15 14 15 16 16 18 19 18 17 16 15 14 12 12 12 14 15 16 17 18 18 17 16 14 12 11 9 7 6
13 13 13 12 12 11 10 9 8 8 9 11 11 11 9 10 13 15 16 15 14 14 15 16 17 17 18 18 15 13 12 12 13 14 12 14 17 17 19 21 20 19 17 16 15 13 12 12 12 14 16 15 17 19 18 17 14 13 13 11 10 9
12 13 13 12 11 11 10 9 8 7 8 9 9 10 9 8 9 10 12 12 12 13 15 16 16 17 17 16 14 12 13 14 12 11 9 11 16 17 19 21 22 20 18 18 17 15 14 12 11 13 15 14 14 16 17 16 13 13 13 13 12 11
11 12 13 12 11 10 10 9 9 9 9 9 8 9 9 8 8 8 9 10 10 12 14 15 15 15 14 13 14 13 13 13 11 10 10 11 15 17 17 19 22 21 20 20 19 18 16 13 11 13 17 15 13 14 15 15 15 15 14 14 13 13
11 12 13 13 12 11 9 9 9 9 10 10 10 9 9 9 9 9 9 9 10 11 12 13 13 14 12 12 13 13 13 12 12 13 13 12 14 15 15 16 18 19 20 22 21 20 18 14 12 14 18 17 16 15 14 15 17 18 17 16 15 15
11 12 13 14 13 12 11 11 11 11 10 10 10 10 10 10 10 10 10 10 11 10 11 10 10 12 12 13 12 11 11 9 11 15 15 13 13 12 13 14 16 16 18 20 21 20 17 14 13 14 17 18 18 16 15 15 18 19 19 17 16 16
13 13 13 13 12 11 11 12 12 11 10 10 11 10 10 10 10 10 11 11 11 11 11 10 10 10 10 12 12 12 10 8 11 15 15 14 13 12 13 14 15 17 18 18 21 21 17 16 15 13 15 19 20 18 16 16 17 19 20 18 18 17
14 14 14 13 11 11 10 10 10 8 8 8 9 9 8 8 9 10 11 11 11 12 13 13 13 13 12 12 12 13 11 10 12 12 12 13 13 13 14 14 15 17 19 19 20 21 19 18 17 15 14 17 19 19 18 17 16 18 20 19 18 18
15 15 13 11 11 11 9 9 9 8 6 6 5 4 4 4 6 7 9 11 13 14 15 15 14 14 14 13 12 11 10 10 10 8 8 11 12 14 15 16 16 16 17 18 18 19 19 18 17 16 16 16 16 17 17 18 17 19 21 21 20 19
15 14 13 11 11 10 10 9 9 8 7 6 5 3 2 2 0 2 4 7 9 10 11 12 12 12 12 13 12 11 10 9 9 7 6 8 9 11 13 16 16 15 16 17 17 18 18 18 16 15 16 16 16 16 16 17 18 19 20 21 21 21
15 14 13 13 11 10 11 10 8 6 6 6 6 5 5 5 5 4 3 2 2 4 5 6 8 8 8 9 9 9 9 8 8 7 6 6 7 7 9 10 10 12 15 13 14 16 16 18 16 14 14 15 15 15 15 16 17 19 19 19 21 22
15 14 14 14 13 11 11 10 8 6 5 5 5 5 7 7 8 8 8 8 7 6 4 3 4 6 6 7 7 7 6 7 7 7 7 7 7 7 6 6 6 7 9 7 9 11 8 12 16 13 11 11 11 11 12 13 15 18 19 19 21 22
16 15 15 15 15 13 12 10 9 7 5 6 6 4 6 7 8 9 10 10 10 10 9 7 4 2 3 5 6 6 5 5 5 6 6 6 7 7 5 5 5 5 6 6 7 8 5 5 9 8 7 8 8 8 9 10 13 15 17 19 20 22
17 16 16 16 15 13 11 10 8 7 5 6 7 5 5 6 7 8 9 10 10 10 11 11 9 7 4 1 2 5 5 5 5 5 5 5 6 6 5 6 6 6 6 6 5 7 7 7 6 5 6 7 8 8 10 10 12 14 14 16 18 20
19 17 16 16 16 14 12 10 8 6 5 5 7 5 4 5 6 7 7 8 9 9 10 11 12 11 10 8 6 3 0 2 4 4 5 6 6 7 7 8 8 8 7 7 7 7 8 9 8 7 7 7 8 10 11 10 11 13 14 15 16 16
20 18 16 16 16 15 13 11 9 7 6 6 6 5 4 4 4 5 5 6 7 7 8 9 10 11 11 10 10 9 7 5 3 1 1 3 5 7 8 9 10 11 11 11 11 10 9 10 10 10 9 9 9 10 10 10 10 12 13 16 18 16
22 19 17 16 17 16 13 11 10 9 8 7 7 7 5 3 3 3 3 4 4 5 6 7 8 9 10 10 9 8 8 7 6 5 4 2 0 2 4 7 9 11 13 14 15 14 13 13 12 12 12 11 12 12 12 12 12 13 13 15 20 20
24 21 19 18 17 17 15 14 12 11 10 9 9 8 6 4 4 3 2 2 2 3 4 5 6 7 7 7 7 7 7 6 5 5 4 3 3 2 2 4 6 8 10 13 15 16 16 16 16 15 14 14 14 14 15 14 13 14 13 14 18 20
26 24 22 20 19 18 17 16 14 13 12 10 9 8 6 5 5 4 4 3 2 2 2 3 4 5 5 5 5 5 5 5 5 4 4 4 4 5 5 5 6 7 8 11 13 15 17 18 19 18 17 16 16 15 15 14 14 15 14 15 18 20
29 27 25 23 21 20 19 18 17 15 14 12 10 9 7 6 5 5 4 5 5 3 2 1 2 2 3 3 3 3 3 4 5 6 6 6 6 6 8 8 9 9 8 9 11 13 15 17 18 20 20 19 19 18 17 16 16 17 16 17 18 21
31 29 28 26 24 23 21 20 19 17 16 14 12 11 9 7 6 6 6 7 6 4 3 3 2 1 1 1 1 2 4 5 6 7 8 8 8 8 9 9 10 10 9 10 10 11 13 14 16 17 19 20 20 21 21 20 19 18 18 19 20 21
32 30 30 28 26 25 23 21 20 19 17 16 15 13 11 9 7 7 7 7 7 6 5 5 4 3 2 2 3 3 5 6 7 8 8 9 9 9 10 10 10 10 10 10 10 11 12 13 14 15 16 18 19 21 22 22 21 21 20 21 21 21
32 31 30 29 28 27 25 23 22 21 20 18 17 15 13 10 9 9 9 8 8 8 7 7 7 6 5 4 5 6 6 7 8 9 9 9 10 10 10 11 11 11 11 10 10 10 11 12 12 13 14 16 17 18 20 21 22 22 21 22 22 21
32 31 29 28 29 28 27 25 24 23 22 20 19 17 15 13 11 10 10 9 9 9 8 8 9 9 8 7 7 7 8 9 10 10 11 11 11 11 12 12 12 12 12 12 12 11 11 11 12 12 13 14 16 16 17 18 19 20 21 22 22 22
33 31 30 29 28 27 27 27 26 24 23 22 20 18 16 14 13 12 11 11 11 10 10 10 11 10 9 9 9 9 10 11 12 12 12 12 12 13 14 14 14 14 13 13 13 12 12 12 12 12 13 14 15 16 16 16 17 18 19 20 22 23

ECMWFFLT2_850_spd_024.txt.gz
Wind_Speed
12 11 11 10 9 10 10 11 11 11 11 11 11 11 11 11 12 12 12 12 12 12 11 11 12 13 13 13 11 9 8 7 7 7 8 6 5 4 4 9 15 17 19 17 17 20 20 18 15 13 12 11 9 10 10 9 10 11 9 8 6 6
12 11 11 10 10 10 10 10 10 10 10 10 10 10 11 11 12 13 12 12 12 12 12 11 11 12 12 13 12 10 9 8 8 8 8 6 4 4 3 7 14 17 19 19 18 20 21 19 17 15 14 12 10 9 10 9 9 10 10 8 6 5
12 11 11 11 11 10 10 10 9 9 9 9 10 10 10 11 12 12 12 12 12 13 12 12 12 12 12 13 12 10 10 10 9 9 8 6 4 4 4 5 12 17 19 21 19 19 21 20 19 17 14 13 11 10 10 10 9 9 9 8 7 5
13 11 11 12 12 12 11 11 10 10 9 10 10 10 10 11 11 12 12 13 13 13 12 12 12 12 13 12 11 10 11 11 10 9 8 6 5 4 4 4 9 16 19 22 21 19 20 21 20 18 15 14 12 11 11 12 11 9 8 8 7 6
14 13 13 14 13 12 13 12 11 11 11 10 10 11 11 10 11 12 12 13 14 13 12 13 13 13 13 12 11 11 12 12 10 10 8 7 6 5 5 4 4 14 20 22 22 19 18 20 20 18 16 15 13 12 12 12 11 10 8 7 6 5
14 14 15 15 13 13 14 14 13 13 12 12 11 11 11 10 10 11 12 13 14 14 13 14 14 14 13 13 12 12 13 13 12 11 10 8 7 6 5 5 4 9 18 22 22 19 17 18 20 19 16 15 14 13 13 12 10 10 9 8 6 5
14 14 15 14 13 14 15 15 15 15 15 13 12 12 11 10 10 10 12 14 14 14 14 15 15 15 14 14 14 13 13 14 14 12 10 9 8 7 6 6 5 8 17 22 22 20 17 16 18 19 17 16 15 13 13 12 10 10 9 8 6 4
13 13 13 13 13 13 14 14 15 15 15 13 13 13 11 11 11 11 11 13 15 16 16 14 14 15 14 15 14 13 14 14 14 12 11 9 9 8 6 6 6 9 17 21 22 20 18 15 16 18 18 17 16 14 13 12 10 10 9 7 5 4
10 11 11 11 12 12 12 13 13 13 12 12 13 14 13 13 13 12 12 11 13 15 16 14 14 14 14 15 14 14 14 13 14 14 12 10 9 8 6 5 6 11 17 20 21 19 17 14 14 16 18 18 17 15 13 13 11 10 8 6 4 3
9 10 10 11 11 12 12 12 12 12 11 11 12 13 14 15 15 16 15 13 13 14 15 14 13 14 14 15 15 13 11 11 14 14 12 11 10 9 7 5 6 12 16 17 19 17 15 13 12 14 17 19 18 17 15 14 13 11 8 7 5 5
10 10 11 11 11 12 13 13 12 12 12 12 12 13 15 17 17 18 17 15 14 14 15 14 14 15 15 15 14 12 10 11 12 11 11 11 11 10 9 6 7 14 15 16 18 16 15 13 12 12 15 19 20 19 17 15 14 12 10 8 7 6
10 10 11 11 10 11 11 12 11 11 12 13 13 14 15 15 16 18 18 16 15 15 15 15 16 15 14 14 12 11 12 11 9 7 10 13 13 12 12 9 10 16 17 17 18 16 16 14 13 11 13 17 20 21 20 18 16 14 12 9 7 6
9 10 10 10 10 10 10 9 8 8 9 11 12 13 13 12 13 17 18 17 16 16 16 15 16 14 13 13 11 10 11 10 8 6 10 14 15 16 15 13 13 17 18 17 17 16 15 15 14 12 12 15 19 21 21 21 19 16 14 11 9 6
9 10 11 11 10 9 8 7 6 6 7 8 10 10 10 10 11 14 16 17 17 17 15 14 16 13 12 13 12 11 10 10 10 7 8 11 15 16 17 17 17 18 18 18 17 16 15 14 14 13 12 14 16 20 21 22 20 18 16 13 10 8
9 10 11 10 9 9 8 7 6 6 6 7 8 8 8 8 10 10 11 13 15 15 13 12 12 10 10 12 12 11 9 9 11 10 9 10 14 16 17 20 20 20 19 19 17 16 16 15 14 12 13 14 16 19 21 21 20 19 17 15 12 10
9 10 10 9 8 8 8 7 7 7 7 6 7 7 6 6 7 9 8 8 9 10 11 11 10 9 10 12 11 10 9 10 11 11 11 11 13 14 16 19 22 22 21 20 19 17 17 17 15 14 13 14 16 18 20 20 19 17 16 14 12 11
9 9 9 9 8 8 8 8 7 7 7 7 7 7 7 5 5 7 7 7 6 7 9 9 10 10 12 12 11 11 11 11 11 11 12 12 12 12 13 17 21 24 24 22 21 19 19 19 18 16 14 15 16 17 18 18 17 17 15 14 13 12
8 8 8 9 9 9 8 8 7 7 7 7 7 8 8 6 6 6 6 6 6 7 8 8 9 10 11 10 9 10 10 9 9 11 12 13 12 12 12 14 18 22 25 25 22 21 22 23 21 19 15 15 16 16 17 18 18 17 16 15 14 13
8 8 9 10 10 9 9 8 7 7 7 7 7 7 8 8 8 8 8 8 9 10 10 11 11 11 11 9 8 9 10 10 10 10 9 13 14 14 13 13 15 19 23 25 23 21 22 25 24 20 17 15 16 17 17 17 17 17 16 15 15 15
8 9 9 10 10 10 9 7 7 6 6 6 5 6 6 7 7 8 8 9 10 11 12 12 13 13 12 11 9 9 9 10 11 10 7 11 14 13 12 13 13 15 18 20 20 19 19 22 21 17 16 15 14 16 17 17 17 16 15 14 15 16
8 9 9 10 10 8 7 6 5 4 3 3 2 1 2 3 4 5 6 8 9 11 11 12 13 13 12 11 9 8 7 7 8 8 6 7 10 10 10 11 12 13 14 15 17 17 16 16 16 14 13 15 15 14 14 16 18 17 15 14 14 16
8 8 9 9 8 6 5 5 5 5 4 4 4 4 2 1 2 2 3 4 5 7 8 8 10 10 10 8 8 7 6 5 5 5 5 5 6 4 4 6 10 12 10 12 14 14 13 12 12 12 13 13 13 14 14 16 18 17 17 16 15 16
9 9 10 9 8 7 8 8 7 6 6 6 5 5 4 3 3 3 4 4 4 3 3 3 5 6 6 5 5 5 4 3 3 3 4 5 4 3 3 2 5 7 6 6 7 7 8 9 10 12 13 12 11 13 16 18 18 17 16 17 17 17
10 10 11 11 10 10 11 11 9 8 8 7 6 5 6 6 7 8 9 9 9 8 7 5 2 2 2 2 3 3 2 2 1 2 3 4 4 3 3 2 2 2 3 3 3 3 4 6 8 9 10 8 8 11 12 14 17 17 17 17 18 18
11 11 12 12 13 13 13 12 10 9 8 8 7 7 7 7 8 9 10 10 11 10 10 9 6 3 1 0 1 1 1 1 1 1 2 3 3 3 3 2 2 2 2 2 1 2 3 3 3 5 6 4 5 7 7 9 12 14 15 16 16 18
13 13 13 14 14 15 15 13 10 8 8 9 9 7 7 7 7 8 9 10 11 11 11 11 10 7 4 1 1 1 2 2 2 2 3 3 4 3 3 3 3 3 3 3 2 1 2 3 2 3 5 4 4 5 5 6 8 10 11 12 13 16
15 14 14 14 15 16 15 13 10 8 7 8 8 7 6 6 6 7 8 9 10 10 10 11 12 11 9 6 4 3 1 1 2 3 3 4 4 5 5 6 5 5 5 4 4 4 4 4 4 4 5 5 6 6 6 5 5 7 8 9 11 12
16 16 15 15 16 16 15 14 12 9 8 8 7 6 5 5 5 5 6 8 8 8 9 10 11 11 11 10 9 8 6 4 3 1 1 2 3 4 5 6 7 7 7 7 7 7 8 8 7 7 7 7 8 8 8 7 7 7 8 10 13 13
18 18 17 16 16 16 15 14 13 12 10 10 9 8 7 5 5 4 5 6 6 7 7 8 8 9 10 10 9 9 8 7 5 4 4 4 3 3 4 4 6 7 8 8 9 9 9 10 10 10 10 10 10 10 9 9 9 8 9 11 13 15
20 19 18 17 17 17 16 16 15 13 12 11 10 9 8 7 6 5 4 4 4 5 5 6 6 7 8 8 7 7 7 6 5 4 4 4 3 3 3 3 4 5 7 7 9 10 10 11 11 12 12 12 13 12 12 12 11 10 10 10 12 13
22 21 20 19 18 18 17 16 16 14 13 12 11 9 8 7 6 5 5 4 3 3 3 4 4 5 5 6 5 5 5 5 4 4 4 3 3 3 3 4 5 5 5 6 7 9 10 11 12 12 13 13 14 14 14 14 14 13 13 12 13 14
25 24 23 21 20 19 19 18 17 16 14 13 12 10 7 6 6 5 6 6 5 4 3 3 3 3 4 4 4 4 4 3 3 4 4 4 5 5 5 6 7 7 6 6 6 6 8 10 12 13 13 14 14 14 14 15 15 15 15 16 17 19
27 26 25 24 22 21 20 19 18 17 15 14 13 12 9 7 7 7 7 7 6 5 5 4 3 3 3 2 2 2 2 2 3 4 5 5 5 5 6 7 8 8 9 8 7 7 7 8 9 10 11 13 14 14 14 15 16 16 17 18 19 21
29 28 27 26 24 22 21 20 19 18 16 16 15 14 12 9 9 9 9 8 7 6 6 6 5 5 4 3 3 2 1 1 2 4 5 5 6 6 6 7 7 8 9 9 9 9 8 8 8 9 9 10 11 13 13 14 15 16 17 19 19 20
31 30 30 29 27 25 23 21 21 20 19 18 17 16 14 12 11 11 11 10 8 8 8 7 8 8 7 6 5 4 3 3 3 4 5 6 6 7 7 7 8 8 9 9 9 9 9 8 8 9 9 10 10 10 12 13 14 15 16 18 19 20
33 32 31 30 29 27 25 23 23 22 21 20 19 18 17 15 14 13 12 12 10 9 9 9 10 10 9 8 7 6 5 5 5 5 6 7 7 7 7 8 8 9 9 10 10 10 10 9 9 9 9 10 11 10 11 11 12 13 14 15 17 18
34 33 33 32 31 29 27 26 25 24 24 23 21 20 19 18 16 15 14 13 12 12 11 12 12 12 11 10 9 8 7 7 7 7 8 8 8 8 8 9 10 10 10 10 10 10 10 10 10 10 10 10 11 11 12 11 11 12 12 14 15 15

ECMWFFLT2_850_spd_030.txt.gz
Wind_Speed
13 13 13 14 13 13 13 14 16 16 15 14 14 13 12 12 12 11 12 11 11 10 10 9 9 9 9 9 9 9 10 9 9 8 8 8 7 6 6 6 8 10 12 13 13 12 12 11 10 9 8 6 5 5 5 5 5 5 3 3 5 5
12 12 12 12 13 13 13 14 14 13 14 14 14 13 13 13 12 11 12 12 11 11 10 9 9 9 9 9 9 10 11 10 10 9 9 9 8 7 6 5 6 8 11 13 12 13 12 12 12 11 9 7 5 5 5 6 6 5 3 3 3 5
12 12 11 11 13 13 12 12 12 11 13 13 13 13 13 12 10 10 11 11 11 10 8 7 7 8 8 8 9 10 11 10 9 9 10 10 9 9 7 6 5 6 9 12 12 11 9 9 12 12 11 8 6 7 6 6 7 6 5 4 3 4
12 12 11 11 11 12 12 11 10 11 12 12 12 13 11 10 9 10 11 11 9 6 6 6 6 6 6 7 8 10 12 11 9 9 10 11 11 10 8 7 6 5 7 9 11 11 8 8 10 12 12 9 8 9 7 7 8 7 6 5 4 4
12 12 12 11 11 11 12 11 10 10 10 10 10 10 10 9 9 12 12 9 7 6 5 6 5 5 6 7 9 11 13 12 10 10 11 12 11 10 8 7 6 4 5 7 10 12 10 9 9 11 12 11 10 10 8 7 8 7 6 6 5 5
12 12 11 10 11 11 11 9 9 9 9 9 9 9 10 10 12 13 11 8 6 6 5 6 6 6 7 7 9 12 13 12 10 10 11 12 10 9 8 8 6 4 5 7 10 12 12 11 9 9 11 12 11 9 8 7 8 8 7 6 6 5
12 12 11 10 11 10 10 9 10 10 9 9 9 9 10 11 13 13 11 9 7 6 6 7 7 7 6 7 9 11 12 11 9 8 10 10 9 10 9 9 8 6 6 7 9 12 12 12 10 9 10 11 12 10 8 8 8 9 8 7 6 6
12 12 12 12 11 9 9 10 11 11 10 10 9 9 10 11 13 13 11 10 8 8 8 7 8 7 6 8 11 11 11 10 9 9 9 9 9 11 10 10 10 9 8 8 10 12 10 11 12 11 10 11 13 12 9 9 9 9 8 7 7 6
12 12 12 12 11 9 9 10 11 11 11 11 10 10 12 13 14 13 11 8 8 9 8 7 8 7 7 11 13 11 11 11 11 11 12 12 11 12 12 11 10 10 9 9 10 12 10 10 12 11 11 12 13 12 11 10 10 9 9 9 8 7
10 10 9 9 8 7 7 8 8 9 9 9 9 10 11 12 14 13 11 9 9 9 8 9 9 9 10 12 13 11 13 12 12 13 14 14 13 12 13 12 10 9 8 7 8 11 11 10 11 11 11 11 12 12 12 12 11 9 9 9 9 8
9 9 8 8 8 7 7 7 6 6 6 6 7 7 8 9 11 12 11 11 11 10 10 10 12 12 12 13 12 12 13 13 12 13 14 15 15 14 14 12 11 9 7 6 7 11 12 11 10 11 12 12 11 12 12 12 11 10 9 9 10 9
8 9 8 8 8 7 8 8 7 7 7 7 7 6 7 7 8 9 10 11 12 11 11 11 12 13 12 13 13 13 13 13 13 13 14 15 16 16 16 14 14 13 10 9 8 9 12 12 11 11 12 12 11 11 12 13 12 12 11 10 10 10
8 7 7 7 7 6 6 6 6 7 7 8 8 7 7 8 8 8 10 11 11 12 12 12 12 13 13 13 13 13 13 12 12 13 13 14 14 16 17 16 16 16 15 13 11 9 11 13 13 13 13 12 12 12 12 13 13 13 13 11 11 10
7 7 6 7 6 6 6 6 5 4 5 6 7 6 7 7 8 7 8 8 8 10 12 12 13 14 14 14 14 13 13 13 12 13 13 12 13 15 16 16 16 17 17 15 12 9 10 13 14 14 15 14 12 12 13 14 14 14 14 13 12 11
6 6 7 7 7 7 6 5 4 4 5 6 6 6 7 6 6 6 5 6 5 6 8 10 13 14 14 14 13 12 12 12 12 12 12 12 12 13 15 16 16 16 16 14 10 10 11 13 13 13 14 14 14 14 15 15 14 15 15 15 14 13
6 6 6 6 5 5 4 3 3 4 6 5 5 6 6 6 5 5 5 5 4 4 4 5 8 11 11 11 11 10 10 10 10 10 10 11 12 12 13 15 15 16 16 13 11 13 14 14 14 13 13 13 14 15 15 14 15 15 15 16 15 14
6 6 5 4 3 2 2 2 2 3 3 3 4 4 4 5 5 4 4 4 4 3 3 3 4 7 8 7 7 8 9 9 10 9 9 10 10 11 12 14 15 15 15 14 13 15 15 15 15 14 13 13 14 14 15 14 15 15 16 16 16 16
6 6 5 4 2 3 3 3 3 2 2 2 3 2 2 3 3 3 3 4 4 3 3 4 4 4 5 6 6 6 7 8 9 9 9 10 10 11 13 14 14 15 15 15 15 16 17 18 18 15 14 14 15 16 16 15 15 17 17 17 17 17
7 6 5 4 3 3 3 2 2 2 2 2 2 2 2 3 3 3 3 4 5 5 5 5 5 5 5 6 6 6 6 6 7 8 9 9 10 12 13 13 14 15 15 17 17 17 18 20 20 19 16 13 14 15 16 15 14 17 18 16 17 18
8 6 5 4 3 4 4 3 3 3 3 3 3 3 4 4 4 3 4 3 4 5 6 6 5 5 6 7 7 6 7 7 7 7 8 9 9 12 12 12 13 14 14 17 19 19 19 20 21 22 21 18 17 14 14 16 14 15 17 16 16 16
9 7 6 5 5 6 6 4 5 5 4 4 4 4 4 5 5 4 4 3 3 3 5 5 4 4 5 6 6 5 5 6 6 6 7 9 9 10 11 11 11 12 12 14 18 20 21 21 22 23 23 22 22 18 18 19 17 16 15 15 15 15
9 8 7 6 6 6 6 6 5 6 5 5 5 5 5 4 3 2 2 2 2 1 0 1 2 3 2 2 3 3 3 4 5 5 6 7 6 7 8 9 9 9 10 11 14 18 20 21 21 22 21 20 20 20 22 22 21 21 16 13 15 15
10 8 7 7 6 6 7 7 7 7 7 7 7 7 6 4 3 2 1 1 1 2 5 6 4 4 3 2 3 3 3 4 5 5 4 4 4 4 6 6 6 7 8 8 10 13 15 17 18 20 20 16 14 13 18 18 19 22 18 14 14 14
10 10 9 7 7 7 7 7 8 9 9 8 7 7 6 5 5 4 4 3 3 5 8 8 6 6 5 4 4 5 4 4 4 4 3 2 2 3 3 3 3 4 6 6 7 8 9 11 13 16 15 13 11 9 11 10 11 16 14 11 12 12
11 11 10 9 9 8 7 6 7 8 9 9 8 8 7 6 7 6 5 5 5 5 7 8 8 7 6 5 5 5 5 5 4 4 4 3 2 2 2 1 1 2 3 4 4 4 6 7 9 12 12 11 10 8 9 8 8 11 10 11 12 9
13 13 13 11 10 9 8 6 6 7 9 9 9 9 8 7 7 7 6 6 7 7 7 7 8 7 6 6 6 5 6 5 4 4 4 4 3 3 3 1 1 1 1 1 1 2 3 4 4 7 10 11 9 8 9 9 9 8 10 14 15 14
15 14 14 13 12 11 9 7 6 7 9 10 9 9 9 9 8 7 7 7 7 7 7 8 7 7 7 6 6 5 6 5 4 4 4 4 3 3 3 2 2 2 1 1 0 1 2 2 2 3 5 6 6 7 7 8 9 8 8 10 14 18
16 16 16 15 14 12 10 9 9 10 11 10 9 10 9 9 8 7 7 7 7 7 7 8 7 7 8 8 8 7 7 7 7 7 6 5 5 4 3 2 2 2 3 3 1 1 1 2 1 2 3 4 4 4 5 5 7 8 7 6 8 12
18 17 17 16 15 14 12 11 11 13 13 11 10 10 9 8 8 7 6 7 7 7 7 7 6 7 7 7 8 8 8 8 8 8 7 7 7 7 6 6 5 4 3 1 1 3 3 2 2 3 2 3 4 3 4 5 6 6 6 6 7 8
20 18 18 17 16 15 14 14 14 14 15 14 12 11 10 9 8 7 6 6 6 6 6 6 5 5 6 6 7 7 7 6 6 6 6 6 7 7 7 7 7 7 7 6 4 2 1 2 4 5 4 3 3 3 4 5 5 5 6 7 8 9
21 19 19 18 17 17 16 17 17 16 16 15 14 13 11 10 9 8 7 6 6 6 5 4 4 4 4 4 5 5 6 5 5 4 5 5 6 6 6 6 7 7 8 7 7 6 5 3 2 2 3 3 3 4 5 4 4 4 5 6 7 8
23 21 20 20 19 19 18 19 19 18 17 16 14 13 12 11 10 8 7 7 7 7 6 5 4 3 3 3 3 3 4 4 4 4 4 4 5 5 6 6 7 7 8 8 8 7 7 6 5 4 3 2 3 4 5 5 6 6 5 5 6 7
25 23 22 22 21 20 19 20 20 19 18 17 15 14 12 11 10 9 8 8 7 7 7 6 5 4 3 2 2 2 2 2 2 3 3 3 4 5 6 6 6 7 7 7 7 7 7 7 6 5 5 5 3 3 4 5 6 6 7 6 6 6
27 25 23 23 22 22 20 20 21 21 20 19 17 15 13 11 10 10 9 9 8 8 8 7 6 6 4 3 3 2 2 2 1 1 2 2 3 4 4 5 5 6 6 7 7 7 6 6 6 5 5 5 5 5 6 7 6 5 5 5 4 5
29 27 25 24 23 23 22 21 21 22 21 20 18 17 15 13 12 11 10 10 10 9 9 8 8 8 7 6 5 5 4 3 2 2 1 0 1 2 3 3 4 5 5 7 8 8 8 8 7 6 6 5 4 5 6 6 6 6 5 6 6 6
31 29 27 25 24 24 23 22 22 22 22 22 20 19 17 16 14 13 12 12 11 11 10 9 10 10 9 8 8 7 6 6 5 4 3 2 2 2 2 2 3 4 5 6 7 9 9 9 10 9 8 7 4 4 6 5 5 6 7 8 8 7
30 30 28 26 25 25 25 24 23 22 22 22 22 21 20 18 16 14 14 13 13 13 12 11 12 11 10 9 9 9 8 8 7 7 6 5 4 4 4 4 4 5 5 6 6 7 8 9 10 10 10 9 6 6 7 6 5 7 8 8 8 7

ECMWFFLT2_850_spd_033.txt.gz
Wind_Speed
15 14 14 15 15 15 16 16 16 16 15 15 14 13 13 13 12 12 12 11 10 10 8 8 9 9 9 10 10 10 10 9 9 8 7 7 7 6 4 4 4 5 7 8 7 7 7 7 6 5 5 4 4 4 5 5 5 5 3 2 6 7
15 15 14 13 13 13 14 16 16 16 16 15 15 14 14 13 13 13 12 11 11 11 9 8 9 9 9 11 12 12 12 11 10 9 9 9 8 6 5 4 4 5 6 7 7 7 7 8 8 7 6 5 5 4 5 8 8 6 4 4 7 6
12 13 12 12 12 13 13 15 15 14 15 15 16 15 14 13 13 12 11 11 10 9 9 7 8 9 9 11 12 12 13 13 11 10 10 10 9 8 6 5 5 4 5 6 6 5 5 7 8 8 8 7 5 4 6 7 9 7 5 6 9 7
12 12 12 13 13 13 13 14 12 13 15 15 15 14 14 13 11 10 10 9 7 7 7 7 6 7 9 10 11 12 13 14 13 12 11 10 10 9 7 6 6 5 5 5 4 5 7 7 7 7 8 8 5 5 7 5 6 8 6 8 12 8
15 14 14 14 14 13 13 13 12 13 13 14 13 13 14 13 11 10 7 6 6 5 6 7 6 7 9 9 10 11 14 15 14 12 11 11 10 9 8 7 7 6 5 5 4 7 9 9 9 7 7 8 7 7 7 5 6 8 8 9 12 9
13 14 13 13 13 13 13 13 13 12 11 10 11 12 13 12 11 9 6 6 6 7 8 8 7 9 11 10 10 10 13 14 13 12 11 11 11 10 7 6 7 5 5 6 6 8 9 9 11 10 7 8 8 7 7 7 7 9 9 10 12 9
10 12 13 12 11 10 10 10 9 9 10 10 11 13 11 12 10 8 8 9 8 9 9 9 9 10 11 10 9 8 10 11 12 11 11 12 12 11 7 7 8 6 5 6 7 7 9 9 11 11 9 9 9 8 7 8 8 9 9 10 11 9
8 8 9 11 10 8 7 8 9 10 11 13 13 13 12 11 9 9 12 12 11 11 9 9 11 12 11 10 9 9 10 11 12 11 11 11 11 11 8 8 8 7 6 6 6 7 8 9 10 12 10 9 9 10 9 8 9 10 10 9 9 9
7 5 4 6 7 7 7 8 10 11 12 13 13 14 13 10 9 11 14 14 13 13 10 10 12 12 11 10 10 11 11 12 11 9 10 10 10 12 10 8 8 8 8 7 6 7 7 8 10 11 11 10 10 10 10 9 10 10 10 9 9 9
6 6 4 5 5 6 6 8 9 10 10 11 11 13 12 9 9 11 13 14 13 13 12 11 11 11 10 10 11 11 11 11 10 9 10 11 12 13 10 8 10 9 8 7 7 7 7 8 9 10 11 12 11 10 10 10 10 10 10 10 9 10
5 6 4 3 4 3 5 7 7 7 8 8 8 9 8 7 8 9 10 12 13 13 11 11 12 11 10 10 12 11 9 10 10 10 11 12 13 14 13 13 13 10 9 9 7 6 7 8 9 9 11 13 12 10 10 11 10 10 11 10 11 11
7 6 3 1 2 2 1 2 3 3 5 6 5 4 4 4 6 6 7 9 10 11 10 10 12 12 11 11 11 9 9 10 9 9 11 13 13 14 16 16 15 13 12 11 9 7 7 8 9 9 10 13 14 12 11 11 11 11 11 11 11 10
7 6 5 4 3 2 1 1 2 2 4 5 3 2 2 4 5 3 4 6 6 7 8 9 10 11 12 11 9 9 10 10 10 11 13 13 13 13 15 15 16 15 14 13 11 9 9 9 9 10 10 12 13 13 12 11 12 12 12 12 11 10
7 7 7 7 4 1 2 2 1 2 4 4 2 3 3 3 4 3 3 5 5 5 7 9 9 10 12 11 10 12 13 11 11 13 14 12 11 11 13 14 15 14 13 15 15 12 11 10 9 11 11 12 13 13 13 12 12 13 13 13 12 11
8 7 7 6 5 3 4 2 1 4 5 4 2 3 3 2 2 2 2 3 4 5 6 7 8 10 11 10 10 13 13 12 12 13 12 11 10 10 12 14 14 13 10 13 15 13 13 11 10 11 11 11 12 12 13 12 12 13 13 14 13 12
7 6 5 4 5 4 4 3 3 4 4 2 0 1 1 1 1 1 1 2 3 4 4 5 7 9 10 10 10 11 11 12 13 12 11 10 10 10 11 13 14 14 10 9 11 12 12 10 9 11 11 11 12 12 12 12 13 13 13 14 14 14
6 4 4 3 3 2 2 2 1 1 1 1 1 1 1 1 0 0 1 2 2 2 3 3 3 5 6 7 9 9 10 12 12 12 11 10 10 10 10 12 14 15 12 10 10 11 11 10 9 11 12 11 11 11 11 12 12 13 13 14 15 15
4 3 3 2 4 4 4 3 1 1 1 1 1 1 1 0 0 1 1 2 2 2 3 3 3 3 4 5 6 7 9 10 10 11 11 11 10 10 11 11 12 14 15 13 12 11 10 11 11 10 11 11 10 11 10 10 11 12 13 14 15 16
4 3 2 2 5 5 4 4 2 2 2 2 1 1 2 1 1 1 0 0 1 1 2 3 3 4 4 4 4 5 7 7 7 8 8 10 11 11 11 11 11 14 16 15 13 12 10 11 12 11 11 12 12 12 11 9 9 10 13 14 15 15
4 3 1 3 5 5 4 3 3 3 3 3 2 2 3 3 2 2 2 1 0 1 2 4 3 4 5 5 4 5 7 7 6 6 5 7 10 11 11 11 12 14 16 16 15 14 12 12 13 13 14 14 13 11 11 11 11 11 10 11 13 14
5 3 3 6 6 5 5 4 4 4 3 3 3 3 4 4 3 3 3 1 1 2 6 7 4 3 4 5 4 4 7 6 5 5 5 5 7 9 10 10 11 11 13 14 14 14 14 13 13 14 14 14 15 14 13 12 13 15 12 9 10 13
6 4 6 8 7 6 5 4 4 4 4 4 4 4 3 3 2 1 1 1 1 2 2 3 3 2 0 2 2 2 4 4 3 4 5 4 5 7 8 8 8 8 9 10 11 13 14 15 14 13 10 11 15 16 15 14 14 17 17 14 13 12
7 5 7 9 9 7 7 7 6 6 5 4 5 6 4 3 2 1 2 2 1 2 4 3 1 2 2 1 0 1 2 3 3 3 3 2 3 4 4 4 4 6 6 6 8 9 11 14 16 14 11 10 13 14 14 14 14 16 19 19 16 13
8 7 8 10 10 9 9 10 9 8 8 6 6 6 4 4 3 3 4 4 3 5 6 4 3 4 3 1 2 2 1 2 3 3 4 4 4 4 3 2 2 2 1 3 5 5 6 9 11 11 10 9 10 11 9 8 9 12 16 17 16 15
10 9 9 10 10 9 8 9 9 9 8 7 6 6 5 4 4 4 4 4 4 6 6 5 5 5 4 3 3 3 1 2 2 3 4 4 4 5 5 4 4 5 4 0 2 1 2 4 6 8 9 8 7 9 9 7 6 7 10 11 10 12
11 11 11 10 10 9 9 9 9 9 8 8 7 7 6 6 5 4 3 4 5 5 5 5 5 3 4 5 4 3 3 2 2 2 2 2 2 4 4 3 4 6 6 3 1 2 2 1 2 5 8 11 10 9 9 9 7 5 6 6 5 7
13 12 12 12 11 10 10 10 10 10 9 9 8 7 7 7 6 5 5 5 5 5 5 5 5 4 4 5 4 4 4 3 3 3 3 3 3 3 3 2 2 2 3 4 3 3 5 4 3 1 3 7 8 8 8 8 7 6 5 3 3 5
15 14 13 13 12 11 11 12 12 11 10 9 8 8 8 7 7 6 6 6 5 5 5 5 5 5 5 5 5 6 6 6 6 5 5 5 4 4 4 3 3 2 1 1 2 2 4 5 4 3 4 5 5 4 4 4 4 6 6 4 4 4
17 16 15 14 13 12 13 13 13 12 11 10 10 9 9 7 7 6 6 6 6 5 5 5 5 6 5 5 6 7 8 8 7 6 5 5 6 7 8 8 8 6 5 4 2 2 2 2 1 1 2 4 5 5 5 4 4 3 5 6 6 6
19 18 17 16 15 14 14 14 13 13 13 12 11 10 9 8 7 6 6 6 6 5 4 4 5 6 6 5 6 6 7 7 8 7 6 6 7 8 8 9 9 9 9 8 7 5 3 3 2 1 1 3 4 4 3 4 4 4 4 5 6 8
21 19 18 17 17 16 16 16 14 14 15 14 13 12 11 10 8 7 6 6 5 5 4 3 4 5 5 5 5 5 6 6 7 7 7 6 6 7 7 8 8 9 9 9 8 8 6 5 5 3 2 3 3 4 3 2 3 2 3 4 5 6
24 21 19 19 19 18 18 17 15 15 16 15 15 14 12 11 10 9 8 7 6 6 5 3 2 3 3 4 5 5 5 5 5 5 5 5 5 5 6 7 7 7 8 8 8 8 7 6 6 5 4 3 4 4 3 2 1 1 2 3 5 6
26 23 21 20 20 20 20 19 17 16 16 16 16 15 13 12 11 10 8 8 7 6 6 5 4 3 2 2 3 3 4 3 3 4 3 4 4 4 5 6 6 7 7 8 8 8 8 8 6 6 5 5 5 4 3 2 2 2 3 4 4 5
26 24 22 21 21 21 21 20 19 17 16 16 16 15 14 12 12 10 9 9 8 7 7 6 5 5 3 1 2 1 2 1 1 2 2 2 2 3 5 4 5 6 7 8 9 9 9 9 9 8 6 5 5 5 4 5 5 5 5 5 4 5
25 25 23 22 21 22 22 21 20 19 17 16 15 16 14 13 13 12 10 10 9 8 8 7 7 7 6 4 4 3 2 1 1 1 1 1 2 3 3 2 3 5 6 7 8 8 9 9 9 9 8 7 6 5 5 5 5 4 4 4 4 6
22 22 23 22 21 22 22 22 22 21 19 17 16 16 14 13 14 13 12 11 11 10 9 8 8 9 8 6 6 6 5 4 4 3 3 3 2 2 2 1 2 4 5 6 7 7 8 8 9 9 9 8 6 5 7 6 5 4 5 5 5 6
20 18 20 21 20 20 21 22 22 22 21 19 17 16 15 14 14 14 14 13 12 11 11 10 10 11 10 7 8 8 7 8 7 6 7 6 4 5 4 2 3 4 4 5 6 6 6 7 8 8 9 9 6 5 8 7 5 6 6 6 5 5

ECMWFFLT2_850_spd_036.txt.gz
Wind_Speed
18 17 17 17 16 16 15 14 13 12 12 11 11 12 12 11 11 9 9 9 8 9 8 7 7 8 8 9 9 8 8 9 8 7 5 4 4 3 3 2 3 3 3 3 3 3 3 4 4 5 5 5 6 7 12 14 13 5 10 9 9 10
18 17 16 15 15 15 15 14 13 12 11 10 11 11 11 10 10 7 9 9 9 9 8 8 8 9 9 10 10 9 9 9 9 8 6 5 4 4 4 4 3 3 4 4 3 4 5 4 4 5 6 6 6 7 11 14 15 8 10 10 9 10
16 16 14 13 13 13 13 14 13 12 12 12 12 12 11 9 9 7 9 9 9 10 9 9 10 10 10 10 10 10 10 9 9 8 7 6 5 5 6 5 3 4 4 4 4 4 5 4 1 3 6 6 7 7 8 11 15 10 8 12 12 10
15 14 13 12 12 11 12 13 13 12 11 12 13 13 11 9 9 8 8 9 9 9 10 10 11 11 10 10 10 10 10 10 10 9 8 6 5 6 7 7 5 5 4 5 5 3 4 3 3 4 5 8 7 5 5 8 14 8 7 11 11 12
15 14 13 12 11 9 10 12 11 10 10 11 12 12 8 6 9 8 7 8 8 8 9 10 10 9 9 9 10 11 11 11 12 11 10 8 7 7 8 8 6 6 5 3 2 2 3 3 7 8 5 8 7 4 6 6 12 8 9 10 9 11
15 14 13 12 10 8 8 10 8 8 9 9 10 9 6 7 10 9 8 7 8 9 9 9 9 7 7 8 9 9 11 12 13 12 10 9 9 9 8 8 7 6 5 2 0 0 3 6 10 9 6 7 7 7 8 6 9 10 11 10 10 12
15 14 13 11 8 7 9 8 6 8 9 7 8 9 6 8 10 10 8 8 10 10 9 10 9 7 7 8 8 8 10 11 12 12 11 10 11 10 8 9 8 6 4 4 4 4 7 8 11 12 8 8 8 8 8 6 8 10 12 11 11 11
12 13 12 10 7 8 9 7 6 8 8 8 9 8 6 8 10 10 9 9 10 10 9 10 8 8 7 8 9 9 9 10 10 12 12 12 11 10 9 10 10 8 6 5 6 6 8 9 9 13 11 8 9 9 7 7 8 10 12 12 11 10
10 10 9 9 8 8 7 6 7 8 7 8 8 6 6 10 11 11 10 9 10 11 11 11 9 9 9 9 10 10 10 10 10 11 11 11 12 11 11 10 9 9 7 5 5 5 6 8 9 11 13 9 10 11 9 9 10 11 12 12 10 8
11 10 7 8 10 8 6 5 5 6 6 8 8 7 8 10 11 11 10 10 11 13 14 14 11 10 9 9 10 10 11 11 10 9 8 9 10 11 10 9 9 9 7 6 6 6 6 8 9 10 11 11 10 11 10 10 11 11 12 11 10 7
12 13 9 7 7 7 7 5 5 6 7 8 7 6 9 9 10 10 9 9 11 14 15 15 12 11 10 9 10 11 11 10 10 9 8 9 9 10 11 10 10 9 9 9 8 7 6 8 10 10 9 9 11 13 10 10 10 10 11 12 10 8
10 12 11 10 7 6 5 4 3 3 5 6 5 4 6 7 8 7 6 7 9 11 13 14 12 11 11 10 10 11 10 10 10 9 9 10 9 10 12 12 11 9 10 11 9 8 7 6 10 9 8 8 10 15 13 10 11 10 10 13 12 10
12 13 12 12 10 7 5 3 3 3 2 2 2 3 5 5 6 4 4 5 7 8 10 12 12 12 12 12 12 10 9 10 11 10 8 9 9 9 10 12 13 12 13 13 11 9 8 8 9 8 9 8 10 14 12 8 11 11 10 13 14 11
16 15 14 14 11 9 8 4 4 2 1 1 1 2 3 3 4 2 2 4 5 6 8 11 12 12 13 13 14 12 10 11 12 10 8 8 8 8 10 11 13 15 15 16 13 11 9 9 10 9 10 6 9 13 10 7 8 9 10 12 14 12
15 14 14 15 14 13 12 10 9 8 5 3 2 3 2 3 3 2 2 3 4 5 7 9 11 11 11 11 12 12 10 11 12 10 7 8 9 8 9 10 12 15 16 15 14 13 11 9 11 10 9 7 8 12 11 9 9 9 10 12 13 12
12 11 11 12 11 10 11 11 11 9 7 7 2 1 1 2 2 1 2 4 3 3 4 6 7 9 9 10 10 11 11 11 11 10 9 9 11 10 10 11 13 14 16 14 11 11 10 9 11 9 10 9 8 11 13 12 11 11 11 12 14 12
10 10 9 9 8 7 8 8 7 7 8 9 6 3 3 3 2 1 2 4 4 3 3 4 5 6 7 8 9 11 11 10 10 10 10 11 12 11 11 12 13 13 15 15 11 9 9 8 9 9 10 11 9 11 14 14 14 13 10 11 13 12
10 10 8 8 9 8 10 9 7 8 9 9 8 8 6 5 6 3 3 4 5 5 4 5 4 4 4 3 4 5 4 5 8 9 9 11 11 11 11 11 12 12 14 16 13 10 9 11 9 6 8 11 10 10 11 12 13 14 12 11 12 11
10 9 8 8 9 10 11 10 9 9 9 8 6 8 7 5 6 4 2 2 3 2 1 3 2 3 2 1 3 6 5 3 6 6 6 9 10 10 10 10 10 11 13 14 13 11 10 12 10 7 7 9 9 11 11 11 11 12 12 12 13 12
10 9 8 9 10 11 11 10 10 9 9 9 6 9 8 5 6 6 5 3 3 4 4 4 3 3 3 2 1 3 6 3 2 3 2 4 8 9 9 9 9 10 11 12 12 13 12 11 10 8 9 8 8 10 10 11 12 11 10 10 12 14
11 8 8 11 11 10 9 9 9 7 8 7 4 7 10 9 8 8 7 6 5 6 6 5 5 4 0 2 4 3 2 2 1 3 2 1 4 6 7 8 9 10 11 10 10 12 11 12 11 9 9 10 10 10 9 9 11 11 11 9 8 12
11 9 10 12 12 11 8 7 8 7 8 7 6 7 7 7 5 4 4 4 4 4 3 2 2 4 5 3 4 5 2 1 1 1 2 2 2 3 4 6 7 8 8 7 7 8 10 11 12 10 9 9 9 9 10 9 9 10 12 12 12 11
11 10 11 12 12 13 11 9 9 9 8 9 10 8 4 3 4 4 4 3 5 8 7 6 8 8 4 3 6 7 4 4 5 4 4 3 4 6 4 2 3 5 6 6 4 5 6 8 10 10 10 9 8 6 7 8 8 9 11 13 15 14
12 11 11 11 10 10 11 11 11 11 10 7 7 7 3 5 6 6 5 5 8 10 7 7 9 7 4 4 7 6 3 4 6 7 6 5 5 7 9 8 4 2 1 2 2 2 2 3 6 7 7 7 7 6 4 4 4 6 7 9 12 14
13 12 11 10 8 7 7 8 9 10 10 5 5 7 6 6 7 6 5 7 8 8 8 9 8 6 6 6 8 8 6 2 5 9 9 6 5 5 7 9 9 7 7 4 3 2 1 1 4 6 6 6 4 3 3 4 4 3 4 5 7 10
13 13 11 9 8 7 7 7 7 9 9 7 8 9 6 6 7 4 4 6 7 6 7 8 6 6 8 7 8 10 9 4 5 8 8 8 6 4 5 5 7 9 9 6 5 5 5 4 2 1 3 5 5 4 5 5 5 3 3 3 4 6
14 13 12 10 9 9 7 7 9 9 9 10 10 8 6 6 5 4 4 6 6 7 7 7 7 7 7 8 8 10 10 9 10 7 4 5 5 3 4 4 4 7 7 5 7 7 8 9 7 7 6 3 2 2 5 5 5 5 3 3 4 4
15 15 13 12 11 10 8 8 10 12 11 11 10 9 8 6 5 5 6 7 6 7 7 7 8 8 8 9 11 12 14 13 11 7 5 6 6 5 6 5 5 7 6 5 8 9 7 8 7 8 9 8 8 7 3 1 2 4 4 4 5 3
16 16 14 14 13 12 10 9 12 14 13 11 10 9 8 6 6 6 7 7 5 6 7 7 8 8 9 11 12 12 13 15 13 9 7 9 11 10 10 11 8 7 6 6 9 8 6 6 6 8 9 8 8 8 6 4 4 3 1 4 5 5
18 17 15 15 14 13 12 11 13 15 14 13 12 10 8 7 7 6 6 7 5 6 7 7 8 9 9 10 11 11 11 12 12 10 9 10 11 10 10 11 10 10 9 9 8 6 5 6 6 6 7 7 6 5 5 5 5 5 3 2 3 4
20 18 17 16 16 15 14 12 14 16 15 14 13 12 10 8 8 7 6 6 5 5 5 6 7 8 8 9 9 10 11 10 10 10 10 9 9 9 10 10 9 9 9 9 9 8 7 7 7 5 7 8 7 6 6 5 3 2 1 0 1 2
22 20 18 18 18 17 16 14 14 17 16 14 14 14 11 9 8 7 6 6 5 3 2 4 6 6 7 8 8 8 9 9 9 9 9 9 8 8 9 9 9 9 9 9 8 8 7 7 8 7 7 8 7 5 6 5 4 2 2 2 2 2
25 23 20 19 20 19 18 16 15 18 18 15 15 14 11 9 9 7 6 7 6 3 2 1 2 4 5 5 6 7 7 8 7 7 8 8 7 8 9 8 8 9 9 9 8 8 8 7 6 7 7 7 6 4 4 4 4 3 3 0 1 1
26 25 23 21 21 21 20 18 17 18 19 18 17 15 12 10 9 8 7 7 7 5 4 3 1 1 2 3 4 5 5 6 6 6 6 6 6 8 7 4 6 8 8 8 8 8 8 8 7 6 6 6 5 4 4 4 6 5 2 1 1 2
26 26 25 23 23 23 22 21 18 18 20 19 18 17 13 11 11 9 8 8 8 8 7 6 5 3 0 1 1 2 3 3 3 3 4 4 4 5 5 3 5 6 6 7 7 7 8 8 8 7 6 6 5 6 5 4 4 3 0 2 2 3
26 26 26 24 24 24 23 23 20 18 19 19 18 18 15 13 12 11 11 10 9 10 9 8 8 6 2 1 2 2 1 1 1 1 2 2 2 2 2 2 4 5 5 6 6 7 8 8 8 8 7 6 5 6 6 4 5 4 3 3 3 3
26 25 25 25 24 24 24 23 21 19 19 17 16 17 16 13 12 12 13 11 10 10 10 10 11 10 6 4 4 4 3 3 2 2 2 1 2 2 2 3 3 3 3 4 5 5 6 7 7 7 7 7 7 8 7 6 6 6 6 5 4 4